Location: Kouchibouguac National Park
(46.8081°N, 64.9088°W)
Time: 16:05:00
(UTC-04:00)

Amateur Radio Satellites - All Passes

Search period start: 24 November 2014 15:34
Search period end: 25 November 2014 15:34
Location: Kouchibouguac National Park, 46.8081°N, 64.9088°W

Satellite Date Start Highest point End Downlink Frequencies (MHz)
Time Altitude Azimuth
MaSat-1 24 Nov 15:44:20 15:47:13 49° 116° (ESE) 15:49:52 437.345
KKS-1 24 Nov 15:48:57 15:53:02 37° 292° (WNW) 15:57:05 437.445
YUBILEINY 24 Nov 15:49:30 15:56:20 27° 280° (W) 16:03:09 435.215
ITUPSAT 1 24 Nov 15:49:42 15:51:50 13° 304° (NW) 15:53:58 437.325
JAS-2 24 Nov 15:54:11 16:01:28 49° 65° (ENE) 16:08:57 435.910
O/OREOS (USA 219) 24 Nov 15:55:35 16:00:03 70° 63° (ENE) 16:04:31 437.305
AUBIESAT-1 24 Nov 16:01:58 16:03:10 11° 312° (NW) 16:04:22 437.475
HORYU 2 24 Nov 16:08:44 16:10:54 13° 271° (W) 16:13:04 437.375
PHONESAT 2.4 24 Nov 16:13:09 16:15:50 19° 160° (SSE) 16:18:31 2401.200-2431.200
RS-15 24 Nov 16:18:37 16:29:04 54° 114° (ESE) 16:39:31 29.354- 29.394
AO-7 24 Nov 16:27:23 16:35:12 45° 261° (W) 16:43:07 29.400- 29.500
VERMONT LUNAR 24 Nov 16:30:55 16:33:54 24° 167° (SSE) 16:36:54 437.305
Cubesat XI-IV 24 Nov 16:34:10 16:38:33 26° 62° (ENE) 16:42:56 437.490
MOZHAYETS 4 24 Nov 16:40:51 16:44:52 28° 94° (E) 16:48:52
STARS 24 Nov 16:49:37 16:52:09 15° 300° (WNW) 16:54:42 437.465
CUTE-I 24 Nov 17:15:01 17:20:13 54° 69° (ENE) 17:25:26 437.470
MaSat-1 24 Nov 17:21:45 17:22:00 10° 312° (NW) 17:22:15 437.345
O/OREOS (USA 219) 24 Nov 17:36:37 17:38:52 14° 261° (W) 17:41:08 437.305
JAS-2 24 Nov 17:39:20 17:46:31 44° 265° (W) 17:53:58 435.910
GONETS M04 24 Nov 17:45:43 17:51:58 21° 56° (NE) 17:58:10
PHONESAT 2.4 24 Nov 17:50:45 17:54:04 31° 177° (S) 17:57:22 2401.200-2431.200
STRAND 1 24 Nov 18:08:37 18:12:03 18° 90° (E) 18:15:26 437.568
VERMONT LUNAR 24 Nov 18:08:41 18:11:54 30° 184° (S) 18:15:06 437.305
Cubesat XI-IV 24 Nov 18:13:08 18:18:21 51° 260° (W) 18:23:36 437.490
CUBESAT XI-V 24 Nov 18:17:43 18:21:21 22° 92° (E) 18:24:56 437.345
MOZHAYETS 4 24 Nov 18:17:54 18:22:09 36° 292° (WNW) 18:26:24
PRISM 24 Nov 18:29:19 18:33:34 67° 102° (ESE) 18:37:46 437.425
RS-15 24 Nov 18:30:47 18:41:27 56° 320° (NW) 18:52:18 29.354- 29.394
HO-68 24 Nov 18:43:40 18:49:23 27° 54° (NE) 18:55:07 435.675
CUTE-I 24 Nov 18:56:22 19:00:36 24° 268° (W) 19:04:52 437.470
SEEDS 24 Nov 19:11:38 19:13:55 15° 61° (ENE) 19:16:13 437.485
PCSat 24 Nov 19:14:30 19:18:20 20° 106° (ESE) 19:22:10 145.827
GOMX 1 24 Nov 19:15:50 19:18:29 15° 61° (ENE) 19:21:02 467.674
AIST 1 24 Nov 19:28:51 19:32:42 31° 90° (E) 19:36:36
PHONESAT 2.4 24 Nov 19:29:19 19:32:21 24° 194° (SSW) 19:35:23 2401.200-2431.200
AAUSAT CUBESAT 2 24 Nov 19:31:12 19:33:55 17° 62° (ENE) 19:36:39 437.432
DX 1 24 Nov 19:31:27 19:31:56 10° 55° (NE) 19:32:25 434.975-435.025
BRITE-PL 24 Nov 19:34:31 19:38:48 30° 67° (ENE) 19:42:49 437.365/2234.400
CANX-2 24 Nov 19:35:46 19:39:26 29° 67° (ENE) 19:43:07 2200.000
GONETS M04 24 Nov 19:41:29 19:50:24 81° 80° (E) 19:59:12
COMPASS 1 24 Nov 19:44:32 19:47:58 25° 66° (ENE) 19:51:25 437.405
DELFI C3 24 Nov 19:46:09 19:47:19 11° 58° (ENE) 19:48:29 145.870
STRAND 1 24 Nov 19:46:38 19:51:43 66° 288° (WNW) 19:56:45 437.568
VERMONT LUNAR 24 Nov 19:47:20 19:49:48 17° 201° (SSW) 19:52:15 437.305
CUBESAT XI-V 24 Nov 19:54:33 19:59:02 46° 290° (WNW) 20:03:28 437.345
BEESAT 3 24 Nov 20:03:19 20:06:16 19° 113° (ESE) 20:09:16 437.485
PRISM 24 Nov 20:06:13 20:08:37 15° 300° (WNW) 20:11:01 437.425
CUTE 1.7 & AOD 2 24 Nov 20:10:03 20:14:12 61° 73° (ENE) 20:18:24 437.475
DOVE 4 24 Nov 20:16:53 20:21:11 40° 70° (ENE) 20:25:16 437.250
BEESAT 2 24 Nov 20:17:01 20:20:20 24° 114° (ESE) 20:23:43 435.950
AISAT 24 Nov 20:18:59 20:20:01 11° 56° (NE) 20:21:04 437.250
HO-68 24 Nov 20:29:15 20:36:26 77° 255° (WSW) 20:43:41 435.675
UKube-1 24 Nov 20:29:32 20:33:27 34° 67° (ENE) 20:37:24 .
FUNcube-1 24 Nov 20:31:21 20:34:07 17° 63° (ENE) 20:36:52 145.935
Oscar 11 24 Nov 20:41:46 20:45:53 47° 71° (ENE) 20:50:02 145.826/435.025
AIST 2 24 Nov 20:44:32 20:47:56 24° 114° (ESE) 20:51:22 435.215
SEEDS 24 Nov 20:45:06 20:49:15 66° 258° (WSW) 20:53:28 437.485
RS-15 24 Nov 20:47:25 20:56:49 31° 352° (N) 21:06:27 29.354- 29.394
CUBEBUG 2 24 Nov 20:48:55 20:52:45 33° 69° (ENE) 20:56:31 437.445
GOMX 1 24 Nov 20:51:22 20:56:10 73° 258° (WSW) 21:00:40 467.674
UWE-3 24 Nov 20:52:26 20:56:11 31° 68° (ENE) 20:59:53 435.000/436.395/437.385
PCSat 24 Nov 20:55:47 21:01:11 71° 305° (NW) 21:06:38 145.827
DX 1 24 Nov 21:03:01 21:07:24 75° 74° (ENE) 21:11:48 434.975-435.025
CINEMA 3 24 Nov 21:03:58 21:08:21 74° 75° (ENE) 21:12:36 145.822/145.860
AAUSAT CUBESAT 2 24 Nov 21:05:11 21:09:14 52° 260° (W) 21:13:20 437.432
AIST 1 24 Nov 21:06:35 21:10:22 28° 288° (WNW) 21:14:12
CANX-2 24 Nov 21:11:42 21:15:21 28° 265° (W) 21:19:03 2200.000
BRITE-PL 24 Nov 21:12:39 21:17:15 36° 263° (W) 21:21:34 437.365/2234.400
DELFI C3 24 Nov 21:17:54 21:21:59 86° 258° (WSW) 21:26:06 145.870
COMPASS 1 24 Nov 21:19:48 21:23:35 33° 264° (W) 21:27:24 437.405
ESTCUBE 1 24 Nov 21:21:07 21:24:05 17° 60° (ENE) 21:27:03 437.505/2401.250
50 SAT 24 Nov 21:24:26 21:27:58 30° 68° (ENE) 21:31:30 437.505
HUMSAT D 24 Nov 21:25:17 21:29:05 36° 69° (ENE) 21:32:53 437.325/437.525
VELOX 1 24 Nov 21:26:22 21:30:36 43° 69° (ENE) 21:34:50 145.980
STRAND 1 24 Nov 21:28:33 21:29:56 11° 308° (NW) 21:31:20 437.568
ZACube-1 24 Nov 21:30:24 21:34:35 67° 74° (ENE) 21:38:44 437.345
GONETS M04 24 Nov 21:39:34 21:46:12 25° 282° (WNW) 21:52:48
BEESAT 3 24 Nov 21:40:07 21:44:09 53° 311° (NW) 21:48:16 437.485
CUTE 1.7 & AOD 2 24 Nov 21:48:19 21:50:34 14° 271° (W) 21:52:49 437.475
AISAT 24 Nov 21:51:24 21:55:54 78° 74° (ENE) 22:00:23 437.250
BEESAT 2 24 Nov 21:54:26 21:58:25 44° 313° (NW) 22:02:28 435.950
DOVE 4 24 Nov 21:55:26 21:59:06 23° 266° (W) 22:02:37 437.250
TIGRISAT 24 Nov 22:01:20 22:04:09 16° 91° (E) 22:07:00 435.000
TISAT 1 24 Nov 22:02:07 22:03:29 11° 58° (ENE) 22:04:51 437.305
UKube-1 24 Nov 22:06:00 22:09:40 26° 265° (W) 22:13:23 .
FUNcube-1 24 Nov 22:06:01 22:10:08 51° 260° (W) 22:14:13 145.935
SPROUT 24 Nov 22:07:20 22:08:41 11° 58° (ENE) 22:10:02 437.525
CUBEBUG 1 24 Nov 22:10:06 22:14:20 44° 70° (ENE) 22:18:34 437.445
NANOSAT C BR1 24 Nov 22:10:15 22:12:21 13° 89° (E) 22:14:27 145.865
UNISAT 6 24 Nov 22:13:39 22:17:08 22° 93° (E) 22:20:39 437.425
Oscar 11 24 Nov 22:19:16 22:22:19 19° 268° (W) 22:25:23 145.826/435.025
QB50P1 24 Nov 22:19:24 22:22:10 17° 91° (E) 22:24:56 145.935-145.965
HO-68 24 Nov 22:21:29 22:25:19 15° 274° (W) 22:29:10 435.675
AIST 2 24 Nov 22:22:13 22:26:19 46° 313° (NW) 22:30:30 435.215
CUBEBUG 2 24 Nov 22:26:00 22:29:31 25° 266° (W) 22:33:01 437.445
UWE-3 24 Nov 22:29:12 22:32:46 26° 265° (W) 22:36:19 435.000/436.395/437.385
BUGSAT 1 24 Nov 22:37:28 22:40:35 21° 93° (E) 22:43:40 437.445
ANTELSAT 24 Nov 22:41:44 22:45:56 41° 98° (E) 22:50:13 437.575/2403.000
PCSat 24 Nov 22:41:54 22:45:36 18° 327° (NNW) 22:49:18 145.827
DX 1 24 Nov 22:42:23 22:44:10 12° 271° (W) 22:45:58 434.975-435.025
POPSAT HIP 1 24 Nov 22:43:18 22:47:01 29° 96° (E) 22:50:42 437.405
CINEMA 3 24 Nov 22:44:26 22:46:03 12° 271° (W) 22:47:39 145.822/145.860
ESTCUBE 1 24 Nov 22:55:59 23:00:30 63° 258° (WSW) 23:05:03 437.505/2401.250
50 SAT 24 Nov 22:59:55 23:03:18 26° 265° (W) 23:06:42 437.505
HUMSAT D 24 Nov 23:01:48 23:05:01 22° 267° (W) 23:08:15 437.325/437.525
RS-15 24 Nov 23:02:53 23:13:05 39° 26° (NNE) 23:23:35 29.354- 29.394
VELOX 1 24 Nov 23:03:54 23:07:23 22° 267° (W) 23:10:52 145.980
ZACube-1 24 Nov 23:09:38 23:11:26 12° 271° (W) 23:13:14 437.345
POLYITAN 1 24 Nov 23:15:39 23:19:52 65° 102° (ESE) 23:24:04 437.675
QB50P2 24 Nov 23:18:15 23:22:29 70° 102° (ESE) 23:26:42 145.880/145.840
BEESAT 3 24 Nov 23:21:25 23:23:20 13° 333° (NNW) 23:25:16 437.485
DUCHIFAT 1 24 Nov 23:25:15 23:29:30 81° 103° (ESE) 23:33:42 145.980
AISAT 24 Nov 23:31:15 23:33:05 12° 272° (W) 23:34:56 437.250
TISAT 1 24 Nov 23:34:23 23:38:40 89° 76° (ENE) 23:42:57 437.305
BEESAT 2 24 Nov 23:36:20 23:37:48 12° 335° (NNW) 23:39:16 435.950
TIGRISAT 24 Nov 23:36:57 23:41:15 56° 288° (WNW) 23:45:38 435.000
SPROUT 24 Nov 23:39:45 23:44:05 88° 76° (ENE) 23:48:26 437.525
AUBIESAT-1 24 Nov 23:42:10 23:45:59 37° 62° (ENE) 23:50:07 437.475
ITUPSAT 1 24 Nov 23:43:18 23:46:56 22° 61° (ENE) 23:50:35 437.325
NANOSAT C BR1 24 Nov 23:44:30 23:48:41 63° 287° (WNW) 23:52:51 145.865
M-CUBED/EXP-1 PRIME 24 Nov 23:46:17 23:50:11 43° 63° (ENE) 23:54:27 437.505
MaSat-1 24 Nov 23:47:21 23:48:02 11° 49° (NE) 23:48:43 437.345
CUBEBUG 1 24 Nov 23:47:33 23:50:55 21° 267° (W) 23:54:18 437.445
ISS 24 Nov 23:49:12 23:51:42 20° 138° (SE) 23:54:12 145.825
UNISAT 6 24 Nov 23:49:57 23:54:06 42° 290° (WNW) 23:58:19 437.425
CUSAT 1 24 Nov 23:51:09 23:55:22 60° 78° (ENE) 00:01:04 437.405
SWISSCUBE 24 Nov 23:54:14 23:58:20 29° 65° (ENE) 00:02:27 437.505
QB50P1 24 Nov 23:54:17 23:58:23 50° 289° (WNW) 00:02:27 145.935-145.965
AIST 2 25 Nov 00:04:15 00:06:02 12° 335° (NNW) 00:07:50 435.215
DANDE 25 Nov 00:10:54 00:15:00 77° 79° (E) 00:20:37 436.750
BUGSAT 1 25 Nov 00:12:26 00:16:15 38° 291° (WNW) 00:20:01 437.445
ANTELSAT 25 Nov 00:19:03 00:22:33 23° 295° (WNW) 00:26:05 437.575/2403.000
POPSAT HIP 1 25 Nov 00:19:14 00:22:54 29° 293° (WNW) 00:26:32 437.405
BEESAT 25 Nov 00:24:58 00:29:35 50° 70° (ENE) 00:34:14 436.000
STARS 25 Nov 00:38:54 00:40:23 12° 57° (ENE) 00:41:52 437.465
POLYITAN 1 25 Nov 00:52:58 00:55:21 15° 300° (WNW) 00:57:44 437.675
QB50P2 25 Nov 00:55:40 00:57:54 14° 300° (WNW) 01:00:07 145.880/145.840
DUCHIFAT 1 25 Nov 01:03:02 01:04:46 12° 301° (WNW) 01:06:30 145.980
YUBILEINY 25 Nov 01:03:56 01:09:01 17° 73° (ENE) 01:14:05 435.215
KKS-1 25 Nov 01:13:44 01:17:44 33° 67° (ENE) 01:21:44 437.445
RS-15 25 Nov 01:15:47 01:27:01 89° 54° (NE) 01:38:44 29.354- 29.394
AUBIESAT-1 25 Nov 01:17:43 01:21:07 25° 262° (W) 01:24:46 437.475
ITUPSAT 1 25 Nov 01:19:47 01:24:29 53° 260° (W) 01:29:14 437.325
MaSat-1 25 Nov 01:20:43 01:22:42 24° 247° (WSW) 01:24:42 437.345
M-CUBED/EXP-1 PRIME 25 Nov 01:22:23 01:25:30 21° 264° (W) 01:28:51 437.505
ISS 25 Nov 01:24:45 01:28:03 76° 336° (NNW) 01:31:21 145.825
Oscar 19 25 Nov 01:27:37 01:32:28 39° 97° (E) 01:37:18 437.125/150
SWISSCUBE 25 Nov 01:31:36 01:36:04 38° 263° (W) 01:40:35 437.505
CUSAT 1 25 Nov 01:35:29 01:38:25 17° 268° (W) 01:41:51 437.405
DANDE 25 Nov 01:56:34 01:58:22 12° 269° (W) 02:00:20 436.750
BEESAT 25 Nov 02:04:04 02:07:43 21° 268° (W) 02:11:23 436.000
STARS 25 Nov 02:11:46 02:16:10 86° 75° (ENE) 02:20:36 437.465
PCSat 25 Nov 02:15:44 02:17:37 12° 21° (NNE) 02:19:30 145.827
ITAMSAT 1 25 Nov 02:17:46 02:22:44 44° 99° (E) 02:27:39 435.822/435.867
HORYU 2 25 Nov 02:20:31 02:21:48 11° 88° (E) 02:23:05 437.375
Gurwin Techsat 1B 25 Nov 02:42:26 02:47:32 44° 98° (E) 02:52:34 435.225
KKS-1 25 Nov 02:50:34 02:54:24 28° 265° (W) 02:58:15 437.445
YUBILEINY 25 Nov 02:55:30 03:04:16 77° 95° (E) 03:13:03 435.215
BEESAT 2 25 Nov 02:57:12 02:58:30 11° 24° (NNE) 02:59:49 435.950
ISS 25 Nov 03:01:57 03:05:00 34° 356° (N) 03:08:04 145.825
Oscar 19 25 Nov 03:07:12 03:11:42 31° 296° (WNW) 03:16:12 437.125/150
SO-50 25 Nov 03:15:43 03:18:26 16° 110° (ESE) 03:21:12 436.795
AIST 2 25 Nov 03:25:56 03:27:28 12° 24° (NNE) 03:29:00 435.215
RS-15 25 Nov 03:29:13 03:38:04 28° 257° (WSW) 03:47:13 29.354- 29.394
MOZHAYETS 4 25 Nov 03:45:43 03:49:56 36° 68° (ENE) 03:54:10
STARS 25 Nov 03:52:26 03:53:17 11° 273° (W) 03:54:09 437.465
HORYU 2 25 Nov 03:54:35 03:59:06 85° 285° (WNW) 04:03:36 437.375
ITAMSAT 1 25 Nov 03:57:39 04:02:02 28° 297° (WNW) 04:06:24 435.822/435.867
PCSat 25 Nov 03:57:48 04:02:46 35° 45° (NE) 04:07:42 145.827
BEESAT 3 25 Nov 04:19:30 04:23:23 34° 44° (NE) 04:27:13 437.485
Gurwin Techsat 1B 25 Nov 04:22:47 04:27:19 29° 297° (WNW) 04:31:49 435.225
AO-7 25 Nov 04:24:50 04:33:01 55° 102° (ESE) 04:41:10 29.400- 29.500
BEESAT 2 25 Nov 04:33:54 04:37:55 41° 46° (NE) 04:41:54 435.950
ISS 25 Nov 04:38:53 04:42:06 46° 16° (NNE) 04:45:18 145.825
JAS-2 25 Nov 04:46:41 04:53:00 32° 91° (E) 04:58:41 435.910
SO-50 25 Nov 04:53:50 04:58:23 74° 309° (NW) 05:03:05 436.795
YUBILEINY 25 Nov 04:54:47 05:02:02 28° 298° (WNW) 05:09:19 435.215
AIST 2 25 Nov 05:03:07 05:07:15 42° 46° (NE) 05:11:19 435.215
PRISM 25 Nov 05:22:53 05:27:04 74° 74° (ENE) 05:31:19 437.425
MOZHAYETS 4 25 Nov 05:23:20 05:27:14 27° 266° (W) 05:31:10
CUBESAT XI-V 25 Nov 05:23:57 05:28:04 30° 66° (ENE) 05:32:12 437.345
STRAND 1 25 Nov 05:26:56 05:31:34 35° 66° (ENE) 05:36:13 437.568
CUTE-I 25 Nov 05:30:25 05:33:45 17° 89° (E) 05:37:03 437.470
HORYU 2 25 Nov 05:33:28 05:35:04 12° 303° (WNW) 05:36:40 437.375
AIST 1 25 Nov 05:34:38 05:36:16 12° 63° (ENE) 05:37:53
PCSat 25 Nov 05:41:09 05:46:20 46° 245° (WSW) 05:51:29 145.827
BEESAT 3 25 Nov 05:57:50 06:01:35 32° 243° (WSW) 06:05:18 437.485
O/OREOS (USA 219) 25 Nov 06:10:43 06:14:59 45° 109° (ESE) 06:19:16 437.305
BEESAT 2 25 Nov 06:12:32 06:16:03 26° 245° (WSW) 06:19:32 435.950
ISS 25 Nov 06:15:35 06:18:45 43° 215° (SW) 06:21:54 145.825
AO-7 25 Nov 06:17:58 06:25:37 42° 303° (WNW) 06:33:15 29.400- 29.500
Cubesat XI-IV 25 Nov 06:27:21 06:32:34 51° 100° (E) 06:37:44 437.490
JAS-2 25 Nov 06:31:20 06:38:26 55° 293° (WNW) 06:44:45 435.910
SO-50 25 Nov 06:36:34 06:39:45 18° 331° (NNW) 06:43:00 436.795
AIST 2 25 Nov 06:42:05 06:45:43 27° 245° (WSW) 06:49:18 435.215
GONETS M04 25 Nov 06:53:12 06:58:49 19° 75° (ENE) 07:04:27
CUBESAT XI-V 25 Nov 07:01:09 07:05:26 34° 264° (W) 07:09:46 437.345
PRISM 25 Nov 07:01:37 07:03:09 12° 271° (W) 07:04:42 437.425
STRAND 1 25 Nov 07:06:05 07:10:45 34° 264° (W) 07:15:26 437.568
CUTE-I 25 Nov 07:09:04 07:14:24 74° 287° (WNW) 07:19:41 437.470
AIST 1 25 Nov 07:10:10 07:14:35 81° 262° (W) 07:18:56
O/OREOS (USA 219) 25 Nov 07:50:58 07:54:36 24° 308° (NW) 07:58:15 437.305
HO-68 25 Nov 07:55:15 07:59:51 18° 88° (E) 08:04:25 435.675
Cubesat XI-IV 25 Nov 08:08:02 08:12:22 26° 299° (WNW) 08:16:41 437.490
AO-7 25 Nov 08:13:06 08:16:12 13° 326° (NNW) 08:19:18 29.400- 29.500
JAS-2 25 Nov 08:18:28 08:21:47 14° 315° (NW) 08:24:58 435.910
SEEDS 25 Nov 08:28:01 08:30:53 17° 91° (E) 08:33:45 437.485
GONETS M04 25 Nov 08:45:25 08:54:13 83° 96° (E) 09:03:07
AAUSAT CUBESAT 2 25 Nov 08:46:37 08:49:48 20° 92° (E) 08:52:58 437.432
DUCHIFAT 1 25 Nov 08:48:40 08:49:54 11° 58° (ENE) 08:51:08 145.980
GOMX 1 25 Nov 08:50:52 08:54:11 23° 94° (E) 08:57:31 467.674
CUTE-I 25 Nov 08:51:13 08:53:34 13° 307° (NW) 08:55:55 437.470
DX 1 25 Nov 08:51:52 08:52:23 10° 87° (E) 08:52:54 434.975-435.025
CANX-2 25 Nov 08:53:50 08:57:52 39° 97° (E) 09:01:54 2200.000
CINEMA 3 25 Nov 08:57:37 08:59:35 13° 89° (E) 09:01:34 145.822/145.860
DELFI C3 25 Nov 08:58:08 08:59:35 12° 88° (E) 09:01:02 145.870
COMPASS 1 25 Nov 09:00:47 09:04:36 31° 96° (E) 09:08:24 437.405
TIGRISAT 25 Nov 09:03:29 09:06:40 21° 64° (ENE) 09:09:50 435.000
NANOSAT C BR1 25 Nov 09:06:15 09:08:57 17° 61° (ENE) 09:11:38 145.865
BRITE-PL 25 Nov 09:14:08 09:18:14 54° 100° (E) 09:22:18 437.365/2234.400
QB50P1 25 Nov 09:15:30 09:18:37 20° 63° (ENE) 09:21:45 145.935-145.965
UNISAT 6 25 Nov 09:16:04 09:19:41 28° 66° (ENE) 09:23:19 437.425
ZACube-1 25 Nov 09:19:24 09:19:49 10° 87° (E) 09:20:14 437.345
CUTE 1.7 & AOD 2 25 Nov 09:28:29 09:32:47 83° 103° (ESE) 09:37:06 437.475
BUGSAT 1 25 Nov 09:30:43 09:34:08 24° 65° (ENE) 09:37:31 437.445
POPSAT HIP 1 25 Nov 09:39:19 09:43:09 33° 68° (ENE) 09:46:58 437.405
HO-68 25 Nov 09:41:19 09:48:34 87° 107° (ESE) 09:55:44 435.675
AISAT 25 Nov 09:41:59 09:43:43 12° 88° (E) 09:45:26 437.250
ANTELSAT 25 Nov 09:44:05 09:48:13 52° 71° (ENE) 09:52:23 437.575/2403.000
UKube-1 25 Nov 09:50:22 09:54:29 40° 99° (E) 09:58:34 .
DOVE 4 25 Nov 09:50:25 09:54:35 73° 102° (ESE) 09:58:50 437.250
FUNcube-1 25 Nov 09:52:10 09:55:33 23° 94° (E) 09:58:58 145.935
Oscar 11 25 Nov 10:02:13 10:06:33 64° 101° (ESE) 10:10:53 145.826/435.025
SEEDS 25 Nov 10:02:52 10:07:00 50° 288° (WNW) 10:11:08 437.485
SO-50 25 Nov 10:02:53 10:05:04 13° 21° (NNE) 10:07:17 436.795
POLYITAN 1 25 Nov 10:11:49 10:16:04 73° 74° (ENE) 10:20:19 437.675
CUBEBUG 2 25 Nov 10:13:19 10:17:26 50° 100° (E) 10:21:38 437.445
QB50P2 25 Nov 10:14:11 10:18:27 77° 74° (ENE) 10:22:43 145.880/145.840
UWE-3 25 Nov 10:15:29 10:19:34 46° 99° (E) 10:23:43 435.000/436.395/437.385
DUCHIFAT 1 25 Nov 10:20:50 10:25:06 88° 76° (ENE) 10:29:23 145.980
AAUSAT CUBESAT 2 25 Nov 10:21:40 10:25:40 41° 290° (WNW) 10:29:39 437.432
DX 1 25 Nov 10:24:53 10:29:16 87° 286° (WNW) 10:33:36 434.975-435.025
GOMX 1 25 Nov 10:28:40 10:32:27 34° 291° (WNW) 10:36:15 467.674
CANX-2 25 Nov 10:30:14 10:33:37 23° 295° (WNW) 10:37:00 2200.000
DELFI C3 25 Nov 10:31:15 10:35:23 72° 286° (WNW) 10:39:31 145.870
CINEMA 3 25 Nov 10:33:05 10:37:15 65° 286° (WNW) 10:41:30 145.822/145.860
COMPASS 1 25 Nov 10:36:39 10:40:15 27° 293° (WNW) 10:43:51 437.405
50 SAT 25 Nov 10:37:28 10:41:12 34° 97° (E) 10:44:56 437.505
TIGRISAT 25 Nov 10:39:07 10:43:10 43° 261° (W) 10:47:15 435.000
NANOSAT C BR1 25 Nov 10:40:13 10:44:25 58° 259° (W) 10:48:38 145.865
HUMSAT D 25 Nov 10:42:30 10:46:32 47° 99° (E) 10:50:36 437.325/437.525
GONETS M04 25 Nov 10:45:11 10:52:12 26° 300° (WNW) 10:59:17
ESTCUBE 1 25 Nov 10:46:42 10:50:17 22° 93° (E) 10:53:50 437.505/2401.250
QB50P1 25 Nov 10:50:09 10:54:14 45° 261° (W) 10:58:21 145.935-145.965
VELOX 1 25 Nov 10:50:45 10:55:08 58° 101° (E) 10:59:29 145.980
ZACube-1 25 Nov 10:52:32 10:56:46 83° 285° (WNW) 11:01:03 437.345
UNISAT 6 25 Nov 10:52:38 10:56:26 31° 264° (W) 11:00:15 437.425
BRITE-PL 25 Nov 10:53:51 10:56:23 16° 298° (WNW) 10:58:54 437.365/2234.400
BUGSAT 1 25 Nov 11:05:30 11:09:28 37° 262° (W) 11:13:25 437.445
CUTE 1.7 & AOD 2 25 Nov 11:06:20 11:08:07 12° 301° (WNW) 11:09:53 437.475
YUBILEINY 25 Nov 11:09:46 11:10:47 10° 44° (NE) 11:11:48 435.215
Oscar 19 25 Nov 11:11:50 11:13:57 13° 54° (NE) 11:16:04 437.125/150
POPSAT HIP 1 25 Nov 11:15:32 11:19:06 26° 265° (W) 11:22:41 437.405
AISAT 25 Nov 11:16:28 11:20:55 77° 286° (WNW) 11:25:19 437.250
TISAT 1 25 Nov 11:18:56 11:20:26 12° 88° (E) 11:21:57 437.305
ANTELSAT 25 Nov 11:22:39 11:25:22 16° 269° (W) 11:28:06 437.575/2403.000
SPROUT 25 Nov 11:25:42 11:27:36 13° 89° (E) 11:29:30 437.525
UKube-1 25 Nov 11:27:01 11:30:26 23° 296° (WNW) 11:33:51 .
FUNcube-1 25 Nov 11:28:09 11:32:01 36° 291° (WNW) 11:35:57 145.935
DOVE 4 25 Nov 11:30:01 11:31:52 13° 300° (WNW) 11:33:44 437.250
HO-68 25 Nov 11:30:05 11:35:27 23° 308° (NW) 11:40:47 435.675
CUBEBUG 1 25 Nov 11:32:35 11:36:56 60° 101° (E) 11:41:13 437.445
Oscar 11 25 Nov 11:39:39 11:42:15 16° 299° (WNW) 11:44:51 145.826/435.025
SO-50 25 Nov 11:42:25 11:46:58 38° 43° (NE) 11:51:32 436.795
POLYITAN 1 25 Nov 11:50:54 11:52:32 12° 272° (W) 11:54:11 437.675
CUBEBUG 2 25 Nov 11:50:58 11:53:50 18° 297° (WNW) 11:56:44 437.445
UWE-3 25 Nov 11:52:49 11:55:51 19° 296° (WNW) 11:58:54 435.000/436.395/437.385
QB50P2 25 Nov 11:53:35 11:54:55 11° 272° (W) 11:56:16 145.880/145.840
ITAMSAT 1 25 Nov 12:02:11 12:05:03 15° 56° (NE) 12:07:56 435.822/435.867
DX 1 25 Nov 12:03:23 12:04:48 11° 303° (WNW) 12:06:13 434.975-435.025
50 SAT 25 Nov 12:13:08 12:16:22 23° 294° (WNW) 12:19:36 437.505
HUMSAT D 25 Nov 12:19:09 12:22:03 19° 297° (WNW) 12:24:58 437.325/437.525
ESTCUBE 1 25 Nov 12:23:02 12:27:21 43° 291° (WNW) 12:31:37 437.505/2401.250
VELOX 1 25 Nov 12:28:22 12:31:19 18° 299° (WNW) 12:34:15 145.980
Gurwin Techsat 1B 25 Nov 12:29:29 12:32:30 16° 56° (NE) 12:35:33 435.225
ZACube-1 25 Nov 12:31:53 12:32:28 10° 302° (WNW) 12:33:04 437.345
Oscar 19 25 Nov 12:47:20 12:52:25 76° 73° (ENE) 12:57:34 437.125/150
TISAT 1 25 Nov 12:52:35 12:56:48 73° 286° (WNW) 13:00:59 437.305
AISAT 25 Nov 12:56:00 12:56:46 10° 304° (NW) 12:57:33 437.250
AUBIESAT-1 25 Nov 12:57:03 13:00:57 23° 97° (E) 13:04:47 437.475
SPROUT 25 Nov 12:59:55 13:04:12 69° 286° (WNW) 13:08:26 437.525
M-CUBED/EXP-1 PRIME 25 Nov 13:01:30 13:05:43 27° 99° (E) 13:09:52 437.505
YUBILEINY 25 Nov 13:02:16 13:10:33 45° 70° (ENE) 13:18:44 435.215
CUSAT 1 25 Nov 13:08:55 13:11:29 45° 98° (E) 13:14:01 437.405
CUBEBUG 1 25 Nov 13:10:05 13:12:52 17° 299° (WNW) 13:15:38 437.445
ITUPSAT 1 25 Nov 13:17:49 13:22:09 32° 96° (E) 13:26:26 437.325
HORYU 2 25 Nov 13:21:30 13:24:15 16° 60° (ENE) 13:27:00 437.375
SO-50 25 Nov 13:23:03 13:27:32 38° 242° (WSW) 13:32:02 436.795
SWISSCUBE 25 Nov 13:28:54 13:33:31 44° 99° (E) 13:38:05 437.505
DANDE 25 Nov 13:31:19 13:34:04 85° 100° (E) 13:36:41 436.750
AO-7 25 Nov 13:36:54 13:43:17 26° 48° (NE) 13:49:40 29.400- 29.500
ITAMSAT 1 25 Nov 13:38:35 13:43:48 88° 74° (ENE) 13:49:04 435.822/435.867
BEESAT 25 Nov 14:00:03 14:04:53 81° 104° (ESE) 14:09:40 436.000
STARS 25 Nov 14:00:49 14:02:53 13° 89° (E) 14:04:58 437.465
Gurwin Techsat 1B 25 Nov 14:06:25 14:11:44 89° 73° (ENE) 14:17:05 435.225
Oscar 19 25 Nov 14:29:23 14:32:21 15° 271° (W) 14:35:20 437.125/150
AUBIESAT-1 25 Nov 14:31:23 14:36:10 52° 295° (WNW) 14:40:53 437.475
M-CUBED/EXP-1 PRIME 25 Nov 14:36:11 14:40:52 45° 296° (WNW) 14:45:31 437.505
KKS-1 25 Nov 14:38:18 14:42:34 44° 99° (E) 14:46:49 437.445
O/OREOS (USA 219) 25 Nov 14:38:58 14:42:20 20° 50° (NE) 14:45:41 437.305
MaSat-1 25 Nov 14:52:22 14:54:12 15° 111° (ESE) 14:55:57 437.345
ITUPSAT 1 25 Nov 14:55:43 15:00:02 33° 294° (WNW) 15:04:19 437.325
HORYU 2 25 Nov 14:56:03 15:00:27 64° 258° (WSW) 15:04:53 437.375
YUBILEINY 25 Nov 14:59:15 15:07:25 47° 272° (W) 15:15:31 435.215
JAS-2 25 Nov 15:01:17 15:07:17 25° 55° (NE) 15:13:19 435.910
SWISSCUBE 25 Nov 15:07:16 15:11:09 25° 297° (WNW) 15:15:02 437.505
ITAMSAT 1 25 Nov 15:21:32 15:24:00 13° 273° (W) 15:26:29 435.822/435.867
